DO9LL-1 Weather Reports


Display with metric or nautical units.
time (UTC)temp
F
wind
direction
speed
MPH
gust
MPH
rain 1hr
in
rain 24hr
in
rain mn
in
humidity
%
barometer
mb
20260505151220 51 337 1.0 2.0 0.00 0.61 0.09 91 1008.5
20260505150218 51 332 0.0 2.0 0.00 0.61 0.09 91 1008.4
20260505140217 51 328 1.0 2.0 0.00 0.61 0.09 92 1008.7
20260505130218 50 351 1.0 3.0 0.00 0.61 0.09 92 1009.1
20260505124230 51 348 1.0 3.0 0.00 0.61 0.09 91 1009.2
20260505123232 51 336 0.0 4.0 0.00 0.61 0.09 91 1009.2
20260505122224 50 324 1.0 3.0 0.00 0.61 0.09 91 1009.3
20260505121221 50 335 1.0 3.0 0.00 0.61 0.09 92 1009.3
20260505120218 50 293 1.0 3.0 0.00 0.61 0.09 92 1009.3
20260505115235 49 323 1.0 3.0 0.00 0.61 0.09 93 1009.4
20260505114232 49 320 1.0 3.0 0.00 0.61 0.09 94 1009.5
20260505113228 49 330 1.0 3.0 0.00 0.61 0.09 95 1009.4
20260505112227 49 2 1.0 2.0 0.00 0.61 0.09 95 1009.5
20260505111222 49 338 1.0 4.0 0.00 0.61 0.09 95 1009.6
20260505110219 49 340 0.0 2.0 0.00 0.61 0.09 95 1009.7
20260505101223 49 329 1.0 3.0 0.00 0.61 0.09 95 1009.8
20260505100220 48 328 1.0 3.0 0.00 0.61 0.09 95 1009.9
20260505095217 49 306 1.0 3.0 0.00 0.61 0.09 95 1009.9
20260505094234 49 354 1.0 2.0 0.00 0.61 0.09 95 1009.9
20260505093230 48 301 0.0 1.0 0.00 0.61 0.09 96 1009.9
20260505092228 48 325 0.0 3.0 0.00 0.61 0.09 96 1010.0
20260505091225 49 341 1.0 4.0 0.00 0.61 0.09 96 1010.0
20260505090221 48 348 1.0 3.0 0.00 0.61 0.09 96 1009.9
20260505085219 48 345 1.0 6.0 0.00 0.61 0.09 96 1009.9
20260505084235 48 347 1.0 3.0 0.00 0.61 0.09 96 1010.0
20260505083231 48 329 1.0 3.0 0.00 0.61 0.09 96 1009.8
20260505082228 48 323 1.0 3.0 0.00 0.61 0.09 96 1009.8
20260505081225 48 321 0.0 1.0 0.00 0.61 0.09 96 1009.9
20260505080222 48 321 0.0 2.0 0.00 0.61 0.09 96 1010.0
20260505075226 49 317 0.0 2.0 0.00 0.61 0.09 97 1009.9
20260505074216 48 327 0.0 1.0 0.00 0.61 0.09 97 1009.9
20260505073233 49 323 0.0 3.0 0.00 0.61 0.09 97 1010.1
20260505072230 48 347 0.0 3.0 0.00 0.61 0.09 97 1009.9
20260505071227 48 349 1.0 2.0 0.00 0.61 0.09 97 1010.1
20260505070223 49 312 0.0 2.0 0.00 0.61 0.09 97 1010.1
20260505065219 49 318 0.0 1.0 0.00 0.61 0.09 97 1010.0
20260505064217 48 316 0.0 2.0 0.01 0.61 0.09 97 1010.1
20260505063233 48 313 0.0 2.0 0.01 0.61 0.09 97 1010.1
20260505062230 48 330 1.0 3.0 0.01 0.61 0.09 97 1010.1
20260505061227 48 321 0.0 2.0 0.02 0.61 0.09 97 1010.1
20260505060224 48 351 1.0 1.0 0.02 0.61 0.09 97 1010.1
20260505055220 48 306 0.0 1.0 0.03 0.61 0.09 97 1009.9
20260505054217 48 314 0.0 2.0 0.02 0.60 0.08 97 1009.9
20260505053234 49 348 1.0 4.0 0.02 0.60 0.08 97 1009.8
20260505052231 49 313 0.0 2.0 0.02 0.60 0.08 97 1009.7
20260505051228 49 345 0.0 2.0 0.01 0.59 0.07 97 1009.9
20260505050226 49 342 0.0 2.0 0.02 0.59 0.07 97 1009.9
20260505041230 50 332 0.0 2.0 0.01 0.58 0.06 97 1009.9
20260505040227 50 321 1.0 2.0 0.00 0.57 0.05 97 1009.9
20260505035224 51 325 0.0 3.0 0.00 0.57 0.05 97 1009.9
20260505034221 51 347 1.0 3.0 0.00 0.57 0.05 97 1009.9
20260505033217 52 334 0.0 1.0 0.00 0.57 0.05 97 1009.9
20260505032235 52 324 1.0 3.0 0.00 0.57 0.05 97 1009.9
20260505031231 52 348 0.0 1.0 0.00 0.57 0.05 97 1010.0
20260505030229 52 305 0.0 2.0 0.00 0.57 0.05 97 1009.9
20260505025225 52 315 0.0 2.0 0.00 0.57 0.05 97 1009.9
20260505024222 53 341 0.0 1.0 0.00 0.57 0.05 97 1010.0
20260505023219 53 329 0.0 2.0 0.00 0.57 0.05 97 1009.9
20260505022216 53 311 0.0 2.0 0.00 0.57 0.05 97 1010.0
20260505021233 53 328 1.0 4.0 0.00 0.57 0.05 97 1010.1
20260505020230 54 298 0.0 3.0 0.00 0.57 0.05 97 1010.0
20260505015227 54 353 0.0 1.0 0.00 0.57 0.05 97 1010.2
20260505014223 55 337 0.0 2.0 0.01 0.57 0.05 97 1010.0
20260505013221 55 337 0.0 2.0 0.01 0.57 0.05 97 1010.2
20260505012217 55 0.0 0.0 0.01 0.57 0.05 97 1010.3
20260505011234 56 321 0.0 2.0 0.01 0.57 0.05 97 1010.4
20260505010231 56 0.0 0.0 0.02 0.57 0.05 97 1010.3
20260505005228 56 0.0 0.0 0.02 0.57 0.05 97 1010.4
20260505004225 56 0.0 0.0 0.01 0.56 0.04 97 1010.5
20260505003222 56 0.0 0.0 0.02 0.56 0.04 97 1010.5
20260505002219 56 0.0 0.0 0.02 0.56 0.04 97 1010.6
20260505001216 56 0.0 0.0 0.02 0.56 0.04 97 1010.6
20260505000233 56 0.0 0.0 0.02 0.55 0.03 97 1010.7
20260504235229 57 0.0 0.0 0.02 0.55 0.03 97 1010.9
20260504234226 57 0.0 0.0 0.02 0.55 0.03 97 1010.8
20260504233223 57 0.0 0.0 0.02 0.54 0.02 97 1011.0
20260504232220 57 0.0 0.0 0.02 0.54 0.02 97 1011.2
20260504231217 57 0.0 0.0 0.02 0.54 0.02 97 1011.1
20260504230234 57 0.0 0.0 0.01 0.53 0.01 97 1011.2
20260504225231 56 0.0 0.0 0.01 0.53 0.01 97 1011.3
20260504224228 56 0.0 0.0 0.01 0.53 0.01 97 1011.3
20260504223225 56 0.0 0.0 0.00 0.52 0.00 97 1011.4
20260504222222 56 0.0 0.0 0.00 0.52 0.00 97 1011.4
20260504221219 57 0.0 0.0 0.00 0.52 0.00 97 1011.5
20260504220216 56 0.0 0.0 0.00 0.52 0.52 97 1011.5
20260504215233 56 0.0 0.0 0.00 0.52 0.52 97 1011.6
20260504214230 57 0.0 0.0 0.00 0.52 0.52 97 1011.8
20260504213227 57 0.0 0.0 0.00 0.52 0.52 96 1011.7
20260504212224 57 0.0 0.0 0.00 0.52 0.52 96 1011.8
20260504211221 57 0.0 0.0 0.00 0.52 0.52 96 1011.8
20260504210218 57 0.0 0.0 0.00 0.52 0.52 96 1012.0
20260504205235 57 0.0 0.0 0.00 0.52 0.52 96 1012.0
20260504204232 57 0.0 0.0 0.00 0.52 0.52 96 1011.8
20260504203228 57 0.0 0.0 0.01 0.52 0.52 96 1011.8
20260504202225 57 0.0 0.0 0.01 0.52 0.52 96 1011.9
20260504201222 57 0.0 0.0 0.01 0.52 0.52 96 1011.8
20260504200219 57 0.0 0.0 0.02 0.52 0.52 96 1011.8
20260504195216 57 0.0 0.0 0.02 0.52 0.52 96 1011.8
20260504194233 57 0.0 0.0 0.03 0.52 0.52 95 1011.9
20260504193229 57 0.0 0.0 0.08 0.51 0.51 95 1011.8
20260504192226 57 0.0 0.0 0.25 0.51 0.51 95 1011.7
20260504191223 57 0.0 0.0 0.38 0.51 0.51 95 1011.8
20260504190220 56 0.0 0.0 0.50 0.50 0.50 95 1011.8
20260504185217 56 0.0 0.0 0.50 0.50 0.50 94 1011.7
20260504184234 56 0.0 0.0 0.49 0.49 0.49 94 1011.8
20260504183231 57 1 1.0 2.0 0.43 0.43 0.43 93 1011.7
20260504182228 57 329 1.0 3.0 0.26 0.26 0.26 91 1011.8
20260504181225 59 318 2.0 3.0 0.13 0.13 0.13 89 1011.6
20260504180221 61 301 2.0 7.0 0.00 0.00 0.00 86 1011.6
20260504175218 62 334 1.0 4.0 0.00 0.00 0.00 83 1011.2
20260504174235 64 333 2.0 4.0 0.00 0.00 0.00 76 1011.1
20260504173232 65 149 1.0 2.0 0.00 0.00 0.00 73 1011.1
20260504172229 65 132 0.0 2.0 0.00 0.00 0.00 73 1011.1
20260504171226 65 229 0.0 2.0 0.00 0.00 0.00 73 1011.1
20260504170223 66 164 0.0 2.0 0.00 0.00 0.00 73 1010.9
20260504160224 66 0.0 0.0 0.00 0.00 0.00 69 1011.1